Weather History for Livingston, MT

Change the Weather History Date:

Thursday, November 22, 2012

  Actual Average Record
Temperature  
Mean Temperature 32 °F 31 °F  
Max Temperature 37 °F 41 °F 72 °F (2002)
Min Temperature 26 °F 22 °F -21 °F (1985)
Degree Days  
Heating Degree Days 33 34  
Month to date heating degree days 648  
Since 1 July heating degree days 1676  
Cooling Degree Days 0 0  
Month to date cooling degree days 0  
Year to date cooling degree days 230  
Moisture  
Dew Point 17 °F    
Average Humidity 54    
Maximum Humidity 72    
Minimum Humidity 41    
Precipitation  
Precipitation 0.00 in 0.02 in 0.27 in (1962)
Month to date precipitation 0.43  
Year to date precipitation 14.13  
Sea Level Pressure  
Sea Level Pressure 30.34 in    
Wind  
Wind Speed 15 mph (West)    
Max Wind Speed 26 mph    
Max Gust Speed 34 mph    
Visibility 10 miles    
Events      
T = Trace of Precipitation, MM = Missing Value Source: NWS Daily Summary

Daily Weather History Graph

Daily Weather History Graph

Search for Another Location

Airport:

Trip Planner

Search our weather history database for the weather conditions in past years. The results will help you decide how hot, cold, wet, or windy it might be!

Date:

Astronomy

Nov. 22, 2012 Rise Set
Actual Time 7:31 AM MST 4:44 PM MST
Civil Twilight 6:58 AM MST 5:17 PM MST
Nautical Twilight 6:22 AM MST 5:53 PM MST
Astronomical Twilight 5:46 AM MST 6:29 PM MST
Moon 1:45 PM MST (11/22) 1:39 AM MST (11/22)
Length of Visible Light 10h 18m
Length of Day
9h 12m
Waxing Gibbous, 72% of the Moon is Illuminated
Nov 22
Waxing Gibbous
Nov 28
Full
Dec 6
Last Quarter
Dec 13
New
Dec 19
First Quarter

Hourly Weather History & Observations

Time (MST) Temp. Windchill Dew Point Humidity Pressure Visibility Wind Dir Wind Speed Gust Speed Precip Events Conditions
12:53 AM 28.9 °F 18.6 °F 19.0 °F 67% 30.00 in 10.0 mi WSW 12.7 mph - N/A   Clear
1:53 AM 27.0 °F 19.5 °F 19.0 °F 72% 30.03 in 10.0 mi NNW 6.9 mph - N/A   Clear
2:53 AM 30.9 °F 23.5 °F 19.0 °F 61% 30.09 in 10.0 mi SSW 8.1 mph - N/A   Overcast
3:53 AM 33.1 °F 20.9 °F 21.0 °F 61% 30.10 in 10.0 mi West 21.9 mph 28.8 mph N/A   Overcast
4:53 AM 30.9 °F 18.7 °F 21.0 °F 67% 30.15 in 10.0 mi West 19.6 mph - N/A   Partly Cloudy
5:53 AM 30.9 °F 16.9 °F 19.0 °F 61% 30.19 in 10.0 mi WSW 26.5 mph 34.5 mph N/A   Clear
6:53 AM 30.0 °F 18.3 °F 18.0 °F 61% 30.25 in 10.0 mi West 17.3 mph 25.3 mph N/A   Clear
7:48 AM 30.2 °F 18.5 °F 15.8 °F 55% 30.22 in 10.0 mi West 17.3 mph 24.2 mph N/A   Partly Cloudy
7:53 AM 30.9 °F 22.2 °F 16.0 °F 54% 30.30 in 10.0 mi West 10.4 mph 26.5 mph N/A   Clear
8:53 AM 32.0 °F 18.9 °F 17.1 °F 54% 30.34 in 10.0 mi WSW 24.2 mph 29.9 mph N/A   Clear
9:53 AM 34.0 °F 24.6 °F 18.0 °F 52% 30.36 in 10.0 mi West 13.8 mph 24.2 mph N/A   Clear
10:53 AM 35.1 °F 23.3 °F 18.0 °F 50% 30.38 in 10.0 mi WSW 23.0 mph 32.2 mph N/A   Clear
11:53 AM 36.0 °F 26.7 °F 19.0 °F 50% 30.40 in 10.0 mi West 15.0 mph - N/A   Clear
12:53 PM 37.0 °F 26.4 °F 19.0 °F 48% 30.39 in 10.0 mi West 20.7 mph 29.9 mph N/A   Clear
1:53 PM 37.0 °F 26.2 °F 19.0 °F 48% 30.42 in 10.0 mi WSW 21.9 mph - N/A   Clear
2:53 PM 37.0 °F 25.6 °F 16.0 °F 42% 30.41 in 10.0 mi West 24.2 mph 32.2 mph N/A   Clear
3:53 PM 36.0 °F 24.7 °F 14.0 °F 41% 30.43 in 10.0 mi West 21.9 mph 28.8 mph N/A   Clear
4:53 PM 30.9 °F 23.5 °F 16.0 °F 54% 30.48 in 10.0 mi WSW 8.1 mph - N/A   Clear
5:53 PM 28.9 °F 19.8 °F 15.1 °F 56% 30.50 in 10.0 mi NW 10.4 mph - N/A   Clear
6:53 PM 32.0 °F 26.4 °F 12.9 °F 45% 30.52 in 10.0 mi Variable 5.8 mph - N/A   Clear
7:53 PM 28.0 °F 17.5 °F 14.0 °F 56% 30.53 in 10.0 mi West 12.7 mph - N/A   Clear
8:53 PM 30.0 °F 18.7 °F 12.9 °F 49% 30.52 in 10.0 mi WSW 16.1 mph - N/A   Clear
9:53 PM 30.0 °F 19.1 °F 12.0 °F 47% 30.51 in 10.0 mi WSW 15.0 mph - N/A   Clear
10:53 PM 28.0 °F 17.0 °F 12.9 °F 53% 30.52 in 10.0 mi WNW 13.8 mph 23.0 mph N/A   Clear
11:53 PM 26.1 °F 16.2 °F 12.9 °F 58% 30.53 in 10.0 mi WNW 10.4 mph 27.6 mph N/A   Clear